Wetterdaten: aktuell Freitag, 29.05.2020 23:00
Datum Zeit Temp.Auen Feucht Auen Luftdruck Regen Wind Wind Richt. Wind Richt. Sonnenschein
29.05.2020 23:00 12,3 C 60 % 1023,0 hPa 0,0 l/m 0,0 km/h (0 Bft) S 175 0 min
29.05.2020 22:55 12,4 C 59 % 1024,0 hPa 0,0 l/m 0,0 km/h (0 Bft) S-SW 195 0 min
29.05.2020 22:50 12,6 C 58 % 1024,0 hPa 0,0 l/m 0,0 km/h (0 Bft) S 185 0 min
29.05.2020 22:45 12,8 C 58 % 1024,0 hPa 0,0 l/m 0,0 km/h (0 Bft) S-SW 210 0 min
29.05.2020 22:40 13,0 C 57 % 1023,9 hPa 0,0 l/m 0,0 km/h (0 Bft) S-SW 200 0 min
29.05.2020 22:35 13,0 C 57 % 1023,9 hPa 0,0 l/m 0,0 km/h (0 Bft) W-NW 300 0 min
29.05.2020 22:30 13,0 C 57 % 1023,9 hPa 0,0 l/m 0,0 km/h (0 Bft) SW 220 0 min
29.05.2020 22:25 13,0 C 57 % 1023,9 hPa 0,0 l/m 0,0 km/h (0 Bft) W-SW 245 0 min
29.05.2020 22:20 13,2 C 57 % 1023,9 hPa 0,0 l/m 0,0 km/h (0 Bft) W-NW 300 0 min
29.05.2020 22:15 13,4 C 57 % 1023,9 hPa 0,0 l/m 0,0 km/h (0 Bft) S 175 0 min
29.05.2020 22:10 13,5 C 57 % 1023,9 hPa 0,0 l/m 0,0 km/h (0 Bft) S-SW 200 0 min
29.05.2020 22:05 13,6 C 57 % 1023,9 hPa 0,0 l/m 0,0 km/h (0 Bft) S-SO 160 0 min
29.05.2020 22:00 13,8 C 56 % 1023,9 hPa 0,0 l/m 0,0 km/h (0 Bft) SO 125 0 min
29.05.2020 21:55 14,0 C 56 % 1023,9 hPa 0,0 l/m 0,0 km/h (0 Bft) S 175 0 min
29.05.2020 21:50 14,2 C 55 % 1023,8 hPa 0,0 l/m 0,0 km/h (0 Bft) S 175 0 min
29.05.2020 21:45 14,6 C 54 % 1023,8 hPa 0,0 l/m 0,0 km/h (0 Bft) O-SO 115 0 min
29.05.2020 21:40 14,9 C 54 % 1023,8 hPa 0,0 l/m 0,0 km/h (0 Bft) S 170 0 min
29.05.2020 21:35 15,8 C 50 % 1023,7 hPa 0,0 l/m 0,0 km/h (0 Bft) S-SW 200 0 min
29.05.2020 21:30 16,0 C 48 % 1023,7 hPa 0,0 l/m 0,0 km/h (0 Bft) SW 215 0 min
29.05.2020 21:25 16,5 C 44 % 1023,6 hPa 0,0 l/m 0,0 km/h (0 Bft) W-NW 285 0 min
29.05.2020 21:20 16,6 C 43 % 1023,6 hPa 0,0 l/m 0,0 km/h (0 Bft) W 265 0 min
_ Min-Zeit 05:40 12:50 20:15 - 00:00 - - -
Minimum _ 6,2 C 28 % 1022,4 hPa - 0,0 km/h (0 Bft) - - -
_ Max-Zeit 15:35 06:45 04:00 00:00 00:00 - - 13:10
Maximum _ 23,1 C 82 % 1029,6 hPa 0,0 l/m 0,0 km/h
S-SW (0 Bft)
- - 8 min
Durchschnitt _ 15,1 C 53 % 1026,2 hPa #0,0 l/m 0,0 km/h (0 Bft) - - - #9:29 h